Time,TemperatureF,DewpointF,PressureIn,WindDirection,WindDirectionDegrees,WindSpeedMPH,WindSpeedGustMPH,Humidity,HourlyPrecipIn,Conditions,Clouds,dailyrainin,SolarRadiationWatts/m^2,SoftwareType,DateUTC
2013-06-04 00:02:00,72.3,70.5,29.93,South,184,0.0,0.0,94,0.00,,,0.00,0.0,meteohub,2013-06-04 04:02:00,
2013-06-04 00:05:00,72.1,70.3,29.93,South,184,0.0,0.0,94,0.00,,,0.00,0.0,meteohub,2013-06-04 04:05:00,
2013-06-04 00:11:00,72.1,70.3,29.93,South,184,0.0,0.0,94,0.00,,,0.00,0.0,meteohub,2013-06-04 04:11:00,
2013-06-04 00:12:00,72.1,70.3,29.93,South,184,0.0,0.0,94,0.00,,,0.00,0.0,meteohub,2013-06-04 04:12:00,
2013-06-04 00:17:00,72.1,70.3,29.93,South,184,0.0,0.0,94,0.00,,,0.00,0.0,meteohub,2013-06-04 04:17:00,
2013-06-04 00:22:00,72.0,70.2,29.93,South,184,0.0,0.0,94,0.00,,,0.00,0.0,meteohub,2013-06-04 04:22:00,
2013-06-04 00:30:00,71.8,70.0,29.94,South,184,0.0,0.0,94,0.00,,,0.00,0.0,meteohub,2013-06-04 04:30:00,
2013-06-04 00:36:00,71.8,70.0,29.94,South,184,0.0,0.0,94,0.00,,,0.00,0.0,meteohub,2013-06-04 04:36:00,
2013-06-04 00:42:00,71.8,70.3,29.93,South,184,0.0,0.0,95,0.00,,,0.00,0.0,meteohub,2013-06-04 04:42:00,
2013-06-04 00:47:00,71.6,70.2,29.94,South,184,0.0,0.0,95,0.00,,,0.00,0.0,meteohub,2013-06-04 04:47:00,
2013-06-04 00:52:00,71.6,70.2,29.94,South,184,0.0,0.0,95,0.00,,,0.00,0.0,meteohub,2013-06-04 04:52:00,
2013-06-04 00:57:00,71.4,70.0,29.94,South,184,0.0,0.0,95,0.00,,,0.00,0.0,meteohub,2013-06-04 04:57:00,
2013-06-04 01:02:00,71.4,70.0,29.94,South,184,0.0,0.0,95,0.00,,,0.00,0.0,meteohub,2013-06-04 05:02:00,
2013-06-04 01:10:00,71.4,70.0,29.94,South,184,0.0,1.0,95,0.00,,,0.00,0.0,meteohub,2013-06-04 05:10:00,
2013-06-04 01:16:00,71.2,69.8,29.94,South,184,0.0,1.0,95,0.00,,,0.00,0.0,meteohub,2013-06-04 05:16:00,
2013-06-04 01:22:00,71.2,69.8,29.94,South,184,0.0,0.0,95,0.00,,,0.00,0.0,meteohub,2013-06-04 05:22:00,
2013-06-04 01:27:00,71.2,69.8,29.94,South,184,0.0,0.0,95,0.00,,,0.00,0.0,meteohub,2013-06-04 05:27:00,
2013-06-04 01:32:00,71.2,69.8,29.94,South,184,0.0,0.0,95,0.00,,,0.00,0.0,meteohub,2013-06-04 05:32:00,
2013-06-04 01:37:00,71.2,69.8,29.94,South,184,0.0,0.0,95,0.00,,,0.00,0.0,meteohub,2013-06-04 05:37:00,
2013-06-04 01:42:00,71.2,69.8,29.94,NNE,12,0.0,1.0,95,0.00,,,0.00,0.0,meteohub,2013-06-04 05:42:00,
2013-06-04 01:50:00,71.2,69.8,29.94,NNE,12,0.0,1.0,95,0.00,,,0.00,0.0,meteohub,2013-06-04 05:50:00,
2013-06-04 01:56:00,71.2,69.8,29.94,NNE,12,0.0,1.0,95,0.00,,,0.00,0.0,meteohub,2013-06-04 05:56:00,
2013-06-04 02:02:00,71.2,69.8,29.94,NNE,12,0.0,1.0,95,0.00,,,0.00,0.0,meteohub,2013-06-04 06:02:00,
2013-06-04 02:07:00,71.1,69.6,29.94,NNE,12,0.0,1.0,95,0.00,,,0.00,0.0,meteohub,2013-06-04 06:07:00,
2013-06-04 02:12:00,71.1,69.6,29.94,NNE,12,0.0,1.0,95,0.00,,,0.00,0.0,meteohub,2013-06-04 06:12:00,
2013-06-04 02:17:00,71.1,69.6,29.94,NNE,12,0.0,0.0,95,0.00,,,0.00,0.0,meteohub,2013-06-04 06:17:00,
2013-06-04 02:22:00,71.1,69.6,29.94,NNE,12,0.0,0.0,95,0.00,,,0.00,0.0,meteohub,2013-06-04 06:22:00,
2013-06-04 02:30:00,70.9,69.4,29.94,NNE,12,0.0,0.0,95,0.00,,,0.00,0.0,meteohub,2013-06-04 06:30:00,
2013-06-04 02:36:00,70.7,69.3,29.94,NNE,12,0.0,0.0,95,0.00,,,0.00,0.0,meteohub,2013-06-04 06:36:00,
2013-06-04 02:42:00,70.7,69.3,29.94,NNE,12,0.0,0.0,95,0.00,,,0.00,0.0,meteohub,2013-06-04 06:42:00,
2013-06-04 02:47:00,70.5,69.1,29.93,NNE,12,0.0,0.0,95,0.00,,,0.00,0.0,meteohub,2013-06-04 06:47:00,
2013-06-04 02:52:00,70.5,69.1,29.94,NNE,12,0.0,0.0,95,0.00,,,0.00,0.0,meteohub,2013-06-04 06:52:00,
2013-06-04 02:57:00,70.5,69.3,29.93,NNE,12,0.0,0.0,96,0.00,,,0.00,0.0,meteohub,2013-06-04 06:57:00,
2013-06-04 03:04:00,70.5,69.3,29.93,NNE,12,0.0,0.0,96,0.00,,,0.00,0.0,meteohub,2013-06-04 07:04:00,
2013-06-04 03:10:00,70.5,69.3,29.93,NNE,12,0.0,0.0,96,0.00,,,0.00,0.0,meteohub,2013-06-04 07:10:00,
2013-06-04 03:16:00,70.5,69.3,29.93,NNE,12,0.0,0.0,96,0.00,,,0.00,0.0,meteohub,2013-06-04 07:16:00,
2013-06-04 03:22:00,70.7,69.4,29.93,NNE,12,0.0,0.0,96,0.00,,,0.00,0.0,meteohub,2013-06-04 07:22:00,
2013-06-04 03:27:00,70.9,69.6,29.93,NNE,12,0.0,0.0,96,0.00,,,0.00,0.0,meteohub,2013-06-04 07:27:00,
2013-06-04 03:32:00,70.9,69.6,29.93,NNE,12,0.0,0.0,96,0.00,,,0.00,0.0,meteohub,2013-06-04 07:32:00,
2013-06-04 03:37:00,70.9,69.6,29.93,NNE,12,0.0,0.0,96,0.00,,,0.00,0.0,meteohub,2013-06-04 07:37:00,
2013-06-04 03:42:00,70.9,69.6,29.93,NNE,12,0.0,0.0,96,0.00,,,0.00,0.0,meteohub,2013-06-04 07:42:00,
2013-06-04 03:47:00,70.9,69.6,29.93,NNE,12,0.0,0.0,96,0.00,,,0.00,0.0,meteohub,2013-06-04 07:47:00,
2013-06-04 03:53:00,70.9,69.6,29.92,NNE,12,0.0,0.0,96,0.00,,,0.00,0.0,meteohub,2013-06-04 07:53:00,
2013-06-04 03:59:00,70.7,69.4,29.93,NNE,12,0.0,0.0,96,0.00,,,0.00,0.0,meteohub,2013-06-04 07:59:00,
2013-06-04 04:05:00,70.7,69.4,29.92,NNE,12,0.0,0.0,96,0.00,,,0.00,0.0,meteohub,2013-06-04 08:05:00,
2013-06-04 04:12:00,70.5,69.3,29.93,NNE,12,0.0,0.0,96,0.00,,,0.00,0.0,meteohub,2013-06-04 08:12:00,
2013-06-04 04:17:00,70.5,69.3,29.93,NNE,12,0.0,0.0,96,0.00,,,0.00,0.0,meteohub,2013-06-04 08:17:00,
2013-06-04 04:22:00,70.5,69.3,29.93,NNE,12,0.0,0.0,96,0.00,,,0.00,0.0,meteohub,2013-06-04 08:22:00,
2013-06-04 04:27:00,70.5,69.3,29.92,NNE,12,0.0,0.0,96,0.00,,,0.00,0.0,meteohub,2013-06-04 08:27:00,
2013-06-04 04:32:00,70.5,69.3,29.92,NNE,12,0.0,0.0,96,0.00,,,0.00,0.0,meteohub,2013-06-04 08:32:00,
2013-06-04 04:37:00,70.3,69.1,29.92,NNE,12,0.0,0.0,96,0.00,,,0.00,0.0,meteohub,2013-06-04 08:37:00,
2013-06-04 04:42:00,70.3,69.1,29.92,NNE,12,0.0,0.0,96,0.00,,,0.00,0.0,meteohub,2013-06-04 08:42:00,
2013-06-04 04:47:00,70.3,69.1,29.92,NNE,12,0.0,0.0,96,0.00,,,0.00,0.0,meteohub,2013-06-04 08:47:00,
2013-06-04 04:52:00,70.3,69.1,29.92,NNE,12,0.0,0.0,96,0.00,,,0.00,0.0,meteohub,2013-06-04 08:52:00,
2013-06-04 04:57:00,70.3,69.1,29.92,NNE,12,0.0,0.0,96,0.00,,,0.00,0.0,meteohub,2013-06-04 08:57:00,
2013-06-04 05:02:00,70.2,68.9,29.93,NNE,12,0.0,0.0,96,0.00,,,0.00,0.0,meteohub,2013-06-04 09:02:00,
2013-06-04 05:07:00,70.2,68.9,29.93,NNE,12,0.0,0.0,96,0.00,,,0.00,0.0,meteohub,2013-06-04 09:07:00,
2013-06-04 05:12:00,70.2,68.9,29.92,NNE,12,0.0,0.0,96,0.00,,,0.00,0.0,meteohub,2013-06-04 09:12:00,
2013-06-04 05:17:00,70.0,68.7,29.93,NNE,12,0.0,0.0,96,0.00,,,0.00,0.0,meteohub,2013-06-04 09:17:00,
2013-06-04 05:22:00,70.0,68.7,29.93,NNE,12,0.0,0.0,96,0.00,,,0.00,0.0,meteohub,2013-06-04 09:22:00,
2013-06-04 05:27:00,70.0,68.7,29.93,NNE,12,0.0,0.0,96,0.00,,,0.00,0.0,meteohub,2013-06-04 09:27:00,
2013-06-04 05:32:00,70.0,68.7,29.93,NNE,12,0.0,0.0,96,0.00,,,0.00,0.0,meteohub,2013-06-04 09:32:00,
2013-06-04 05:37:00,70.0,68.7,29.93,NNE,12,0.0,0.0,96,0.00,,,0.00,0.0,meteohub,2013-06-04 09:37:00,
2013-06-04 05:42:00,70.0,68.7,29.93,NNE,12,0.0,0.0,96,0.00,,,0.00,0.0,meteohub,2013-06-04 09:42:00,
2013-06-04 05:47:00,69.8,68.5,29.93,NNE,12,0.0,0.0,96,0.00,,,0.00,0.0,meteohub,2013-06-04 09:47:00,
2013-06-04 05:52:00,69.8,68.5,29.93,NNE,12,0.0,0.0,96,0.00,,,0.00,0.0,meteohub,2013-06-04 09:52:00,
2013-06-04 05:57:00,69.8,68.5,29.93,NNE,12,0.0,0.0,96,0.00,,,0.00,0.0,meteohub,2013-06-04 09:57:00,
2013-06-04 06:02:00,69.6,68.4,29.93,NNE,12,0.0,0.0,96,0.00,,,0.00,0.0,meteohub,2013-06-04 10:02:00,
2013-06-04 06:07:00,69.6,68.4,29.93,NNE,12,0.0,0.0,96,0.00,,,0.00,0.0,meteohub,2013-06-04 10:07:00,
2013-06-04 06:12:00,69.6,68.4,29.94,NNE,12,0.0,0.0,96,0.00,,,0.00,0.0,meteohub,2013-06-04 10:12:00,
2013-06-04 06:17:00,69.6,68.4,29.94,NNE,12,0.0,0.0,96,0.00,,,0.00,0.0,meteohub,2013-06-04 10:17:00,
2013-06-04 06:22:00,69.6,68.4,29.94,NNE,12,0.0,0.0,96,0.00,,,0.00,0.0,meteohub,2013-06-04 10:22:00,
2013-06-04 06:27:00,69.4,68.2,29.94,NNE,12,0.0,0.0,96,0.00,,,0.00,0.0,meteohub,2013-06-04 10:27:00,
2013-06-04 06:32:00,69.4,68.2,29.94,NNE,12,0.0,0.0,96,0.00,,,0.00,5.0,meteohub,2013-06-04 10:32:00,
2013-06-04 06:38:00,69.4,68.2,29.94,NNE,12,0.0,0.0,96,0.00,,,0.00,9.0,meteohub,2013-06-04 10:38:00,
2013-06-04 06:44:00,69.4,68.2,29.94,NNE,12,0.0,0.0,96,0.00,,,0.00,11.0,meteohub,2013-06-04 10:44:00,
2013-06-04 06:50:00,69.4,68.2,29.95,NNE,12,0.0,0.0,96,0.00,,,0.00,14.0,meteohub,2013-06-04 10:50:00,
2013-06-04 06:57:00,69.4,68.2,29.95,NNE,12,0.0,0.0,96,0.00,,,0.00,18.0,meteohub,2013-06-04 10:57:00,
2013-06-04 07:03:00,69.6,68.4,29.95,NNE,12,0.0,0.0,96,0.00,,,0.00,19.0,meteohub,2013-06-04 11:03:00,
2013-06-04 07:09:00,69.6,68.4,29.96,NNE,12,0.0,0.0,96,0.00,,,0.00,26.0,meteohub,2013-06-04 11:09:00,
2013-06-04 07:15:00,69.6,68.4,29.96,NNE,12,0.0,0.0,96,0.00,,,0.00,40.0,meteohub,2013-06-04 11:15:00,
2013-06-04 07:21:00,70.0,68.7,29.96,NNE,12,0.0,0.0,96,0.00,,,0.00,37.0,meteohub,2013-06-04 11:21:00,
2013-06-04 07:27:00,70.3,69.4,29.96,NNE,12,0.0,0.0,97,0.00,,,0.00,44.0,meteohub,2013-06-04 11:27:00,
2013-06-04 07:32:00,70.5,69.6,29.96,NNE,12,0.0,0.0,97,0.00,,,0.00,39.0,meteohub,2013-06-04 11:32:00,
2013-06-04 07:37:00,70.9,70.0,29.96,NNE,12,0.0,0.0,97,0.00,,,0.00,42.0,meteohub,2013-06-04 11:37:00,
2013-06-04 07:42:00,71.2,70.3,29.96,NNE,12,0.0,1.0,97,0.00,,,0.00,40.0,meteohub,2013-06-04 11:42:00,
2013-06-04 07:47:00,71.4,70.5,29.96,NW,325,0.0,1.0,97,0.00,,,0.00,54.0,meteohub,2013-06-04 11:47:00,
2013-06-04 07:52:00,72.0,71.1,29.96,NW,325,0.0,1.0,97,0.00,,,0.00,72.0,meteohub,2013-06-04 11:52:00,
2013-06-04 07:57:00,72.1,71.2,29.96,NW,325,0.0,1.0,97,0.00,,,0.00,97.0,meteohub,2013-06-04 11:57:00,
2013-06-04 08:02:00,72.9,72.0,29.97,NW,325,0.0,1.0,97,0.00,,,0.00,97.0,meteohub,2013-06-04 12:02:00,
2013-06-04 08:07:00,73.0,72.1,29.97,NW,325,0.0,1.0,97,0.00,,,0.00,111.0,meteohub,2013-06-04 12:07:00,
2013-06-04 08:12:00,73.0,72.1,29.97,NW,325,0.0,1.0,97,0.00,,,0.00,120.0,meteohub,2013-06-04 12:12:00,
2013-06-04 08:17:00,73.2,72.3,29.97,NW,324,0.0,1.0,97,0.00,,,0.00,107.0,meteohub,2013-06-04 12:17:00,
2013-06-04 08:22:00,73.4,72.5,29.97,NW,324,0.0,1.0,97,0.00,,,0.00,123.0,meteohub,2013-06-04 12:22:00,
2013-06-04 08:27:00,73.6,72.7,29.97,NW,324,0.0,1.0,97,0.00,,,0.00,116.0,meteohub,2013-06-04 12:27:00,
2013-06-04 08:32:00,73.8,72.9,29.97,NW,324,0.0,2.0,97,0.00,,,0.00,137.0,meteohub,2013-06-04 12:32:00,
2013-06-04 08:37:00,73.8,72.9,29.97,NW,324,1.0,2.0,97,0.00,,,0.00,123.0,meteohub,2013-06-04 12:37:00,
2013-06-04 08:42:00,73.9,73.0,29.98,NW,323,0.0,2.0,97,0.00,,,0.00,116.0,meteohub,2013-06-04 12:42:00,
2013-06-04 08:47:00,74.1,73.2,29.98,WSW,240,1.0,4.0,97,0.00,,,0.00,211.0,meteohub,2013-06-04 12:47:00,
2013-06-04 08:52:00,74.5,73.6,29.98,WSW,240,0.0,4.0,97,0.00,,,0.00,178.0,meteohub,2013-06-04 12:52:00,
2013-06-04 08:57:00,74.5,73.6,29.98,WSW,249,3.0,4.0,97,0.00,,,0.00,156.0,meteohub,2013-06-04 12:57:00,
2013-06-04 09:02:00,74.8,73.9,29.98,SW,215,2.0,4.0,97,0.00,,,0.00,144.0,meteohub,2013-06-04 13:02:00,
2013-06-04 09:07:00,75.0,74.1,29.99,SW,225,0.0,4.0,97,0.00,,,0.00,160.0,meteohub,2013-06-04 13:07:00,
2013-06-04 09:12:00,75.0,73.8,29.99,WSW,244,0.0,3.0,96,0.00,,,0.00,244.0,meteohub,2013-06-04 13:12:00,
2013-06-04 09:17:00,75.6,74.3,29.99,SW,234,0.0,3.0,96,0.00,,,0.00,230.0,meteohub,2013-06-04 13:17:00,
2013-06-04 09:22:00,76.5,75.2,29.99,WSW,255,0.0,3.0,96,0.00,,,0.00,371.0,meteohub,2013-06-04 13:22:00,
2013-06-04 09:27:00,76.5,75.2,29.99,SW,235,4.0,4.0,96,0.00,,,0.00,234.0,meteohub,2013-06-04 13:27:00,
2013-06-04 09:32:00,76.5,74.8,29.99,SW,225,2.0,4.0,95,0.00,,,0.00,158.0,meteohub,2013-06-04 13:32:00,
2013-06-04 09:37:00,76.6,74.8,29.99,SW,225,0.0,4.0,94,0.00,,,0.00,225.0,meteohub,2013-06-04 13:37:00,
2013-06-04 09:42:00,77.0,75.2,29.99,SW,225,0.0,4.0,94,0.00,,,0.00,323.0,meteohub,2013-06-04 13:42:00,
2013-06-04 09:47:00,77.5,75.4,29.99,SW,225,0.0,2.0,93,0.00,,,0.00,378.0,meteohub,2013-06-04 13:47:00,
2013-06-04 09:52:00,78.1,75.6,29.99,SW,225,0.0,3.0,92,0.00,,,0.00,334.0,meteohub,2013-06-04 13:52:00,
2013-06-04 09:57:00,78.4,75.2,30.00,West,259,0.0,4.0,90,0.00,,,0.00,745.0,meteohub,2013-06-04 13:57:00,
2013-06-04 10:02:00,78.6,75.0,29.99,WSW,256,1.0,4.0,89,0.00,,,0.00,288.0,meteohub,2013-06-04 14:02:00,
2013-06-04 10:08:00,78.6,75.0,29.99,West,260,1.0,4.0,89,0.00,,,0.00,299.0,meteohub,2013-06-04 14:08:00,
2013-06-04 10:15:00,79.5,75.9,29.99,West,260,0.0,3.0,89,0.00,,,0.00,285.0,meteohub,2013-06-04 14:15:00,
2013-06-04 10:21:00,80.1,75.9,29.99,West,260,0.0,2.0,87,0.00,,,0.00,327.0,meteohub,2013-06-04 14:21:00,
2013-06-04 10:27:00,80.1,75.6,29.99,SW,233,0.0,2.0,86,0.00,,,0.00,381.0,meteohub,2013-06-04 14:27:00,
2013-06-04 10:32:00,80.1,75.6,29.99,SW,233,0.0,4.0,86,0.00,,,0.00,202.0,meteohub,2013-06-04 14:32:00,
2013-06-04 10:37:00,79.7,75.2,29.99,SW,233,0.0,4.0,86,0.00,,,0.00,663.0,meteohub,2013-06-04 14:37:00,
2013-06-04 10:42:00,80.1,75.6,29.99,NE,34,0.0,4.0,86,0.00,,,0.00,747.0,meteohub,2013-06-04 14:42:00,
2013-06-04 10:47:00,80.4,74.8,29.99,WSW,246,1.0,4.0,83,0.00,,,0.00,782.0,meteohub,2013-06-04 14:47:00,
2013-06-04 10:52:00,81.0,75.7,29.99,WSW,247,0.0,4.0,84,0.00,,,0.00,870.0,meteohub,2013-06-04 14:52:00,
2013-06-04 10:57:00,81.3,76.1,29.99,West,267,1.0,4.0,84,0.00,,,0.00,796.0,meteohub,2013-06-04 14:57:00,
2013-06-04 11:02:00,82.0,74.8,29.99,NE,37,0.0,4.0,79,0.00,,,0.00,921.0,meteohub,2013-06-04 15:02:00,
2013-06-04 11:07:00,82.9,76.1,29.99,West,269,1.0,4.0,80,0.00,,,0.00,267.0,meteohub,2013-06-04 15:07:00,
2013-06-04 11:13:00,82.0,74.8,29.99,WSW,244,0.0,3.0,79,0.00,,,0.00,188.0,meteohub,2013-06-04 15:13:00,
2013-06-04 11:19:00,82.6,75.7,29.99,SW,236,0.0,3.0,80,0.00,,,0.00,933.0,meteohub,2013-06-04 15:19:00,
2013-06-04 11:25:00,83.1,75.2,29.98,WSW,257,1.0,6.0,77,0.00,,,0.00,443.0,meteohub,2013-06-04 15:25:00,
2013-06-04 11:31:00,83.7,75.7,29.98,SSE,167,1.0,6.0,77,0.00,,,0.00,965.0,meteohub,2013-06-04 15:31:00,
2013-06-04 11:37:00,84.4,76.5,29.98,South,173,2.0,4.0,77,0.00,,,0.00,930.0,meteohub,2013-06-04 15:37:00,
2013-06-04 11:42:00,84.7,75.6,29.98,WNW,284,0.0,4.0,74,0.00,,,0.00,1049.0,meteohub,2013-06-04 15:42:00,
2013-06-04 11:47:00,84.4,75.6,29.98,WSW,244,0.0,5.0,75,0.00,,,0.00,376.0,meteohub,2013-06-04 15:47:00,
2013-06-04 11:52:00,84.6,76.5,29.98,WSW,250,0.0,5.0,77,0.00,,,0.00,972.0,meteohub,2013-06-04 15:52:00,
2013-06-04 11:57:00,85.5,75.0,29.98,SW,224,0.0,5.0,71,0.00,,,0.00,935.0,meteohub,2013-06-04 15:57:00,
2013-06-04 12:02:00,84.9,75.2,29.97,West,272,0.0,3.0,73,0.00,,,0.00,990.0,meteohub,2013-06-04 16:02:00,
2013-06-04 12:07:00,85.6,76.8,29.97,SSW,206,0.0,4.0,75,0.00,,,0.00,1085.0,meteohub,2013-06-04 16:07:00,
2013-06-04 12:12:00,85.6,75.9,29.97,SSW,207,0.0,4.0,73,0.00,,,0.00,656.0,meteohub,2013-06-04 16:12:00,
2013-06-04 12:17:00,85.3,75.2,29.97,SSE,164,0.0,3.0,72,0.00,,,0.00,1083.0,meteohub,2013-06-04 16:17:00,
2013-06-04 12:22:00,86.0,75.0,29.97,West,266,0.0,3.0,70,0.00,,,0.00,288.0,meteohub,2013-06-04 16:22:00,
2013-06-04 12:27:00,85.8,77.0,29.97,SW,232,1.0,3.0,75,0.00,,,0.00,705.0,meteohub,2013-06-04 16:27:00,
2013-06-04 12:33:00,84.7,75.2,29.96,WSW,249,0.0,4.0,73,0.00,,,0.00,308.0,meteohub,2013-06-04 16:33:00,
2013-06-04 12:39:00,84.7,75.9,29.96,WSW,245,2.0,4.0,75,0.00,,,0.00,350.0,meteohub,2013-06-04 16:39:00,
2013-06-04 12:45:00,86.2,77.4,29.96,WSW,250,0.0,4.0,75,0.00,,,0.00,1139.0,meteohub,2013-06-04 16:45:00,
2013-06-04 12:52:00,86.7,77.0,29.96,NNW,348,0.0,4.0,73,0.00,,,0.00,1144.0,meteohub,2013-06-04 16:52:00,
2013-06-04 12:57:00,87.1,77.4,29.96,SW,234,0.0,4.0,73,0.00,,,0.00,1009.0,meteohub,2013-06-04 16:57:00,
2013-06-04 13:02:00,86.7,76.1,29.96,ENE,75,0.0,4.0,71,0.00,,,0.00,954.0,meteohub,2013-06-04 17:02:00,
2013-06-04 13:07:00,86.7,75.7,29.96,SSW,208,0.0,4.0,70,0.00,,,0.00,1121.0,meteohub,2013-06-04 17:07:00,
2013-06-04 13:12:00,87.3,76.3,29.96,NE,41,1.0,3.0,70,0.00,,,0.00,1114.0,meteohub,2013-06-04 17:12:00,
2013-06-04 13:17:00,86.7,75.4,29.96,SW,219,0.0,3.0,69,0.00,,,0.00,244.0,meteohub,2013-06-04 17:17:00,
2013-06-04 13:22:00,85.8,75.4,29.96,SW,219,0.0,2.0,71,0.00,,,0.00,308.0,meteohub,2013-06-04 17:22:00,
2013-06-04 13:27:00,85.8,75.7,29.96,East,100,0.0,2.0,72,0.00,,,0.00,626.0,meteohub,2013-06-04 17:27:00,
2013-06-04 13:32:00,86.7,75.4,29.95,NE,52,0.0,2.0,69,0.00,,,0.00,740.0,meteohub,2013-06-04 17:32:00,
2013-06-04 13:37:00,87.3,76.3,29.95,NE,52,0.0,3.0,70,0.00,,,0.00,598.0,meteohub,2013-06-04 17:37:00,
2013-06-04 13:44:00,87.1,74.3,29.95,SSE,168,0.0,3.0,66,0.00,,,0.00,378.0,meteohub,2013-06-04 17:44:00,
2013-06-04 13:50:00,87.1,76.5,29.95,South,169,0.0,2.0,71,0.00,,,0.00,287.0,meteohub,2013-06-04 17:50:00,
2013-06-04 13:56:00,86.5,75.2,29.95,South,169,0.0,2.0,69,0.00,,,0.00,360.0,meteohub,2013-06-04 17:56:00,
2013-06-04 14:02:00,87.6,75.7,29.95,West,275,1.0,1.0,68,0.00,,,0.00,898.0,meteohub,2013-06-04 18:02:00,
2013-06-04 14:07:00,87.4,75.6,29.95,SSE,158,0.0,3.0,68,0.00,,,0.00,388.0,meteohub,2013-06-04 18:07:00,
2013-06-04 14:12:00,85.8,76.6,29.95,NNW,340,1.0,4.0,74,0.00,,,0.00,325.0,meteohub,2013-06-04 18:12:00,
2013-06-04 14:17:00,84.4,76.5,29.95,WNW,286,0.0,9.0,77,0.00,,,0.00,236.0,meteohub,2013-06-04 18:17:00,
2013-06-04 14:22:00,83.3,75.7,29.95,SE,130,1.0,9.0,78,0.00,,,0.00,272.0,meteohub,2013-06-04 18:22:00,
2013-06-04 14:27:00,82.9,75.7,29.94,South,180,1.0,9.0,79,0.00,,,0.00,404.0,meteohub,2013-06-04 18:27:00,
2013-06-04 14:33:00,83.5,76.3,29.94,SSE,166,3.0,9.0,79,0.00,,,0.00,527.0,meteohub,2013-06-04 18:33:00,
2013-06-04 14:39:00,83.7,77.2,29.94,NE,34,0.0,6.0,81,0.00,,,0.00,578.0,meteohub,2013-06-04 18:39:00,
2013-06-04 14:45:00,84.4,76.8,29.94,SW,221,1.0,6.0,78,0.00,,,0.00,1078.0,meteohub,2013-06-04 18:45:00,
2013-06-04 14:51:00,85.3,76.5,29.94,SSE,168,0.0,7.0,75,0.00,,,0.00,990.0,meteohub,2013-06-04 18:51:00,
2013-06-04 14:57:00,85.5,76.3,29.95,SE,145,0.0,9.0,74,0.00,,,0.00,969.0,meteohub,2013-06-04 18:57:00,
2013-06-04 15:02:00,84.4,75.6,29.94,South,180,0.0,9.0,75,0.00,,,0.00,211.0,meteohub,2013-06-04 19:02:00,
2013-06-04 15:07:00,82.9,76.1,29.94,WSW,251,0.0,9.0,80,0.00,,,0.00,341.0,meteohub,2013-06-04 19:07:00,
2013-06-04 15:12:00,83.7,77.2,29.94,SE,146,1.0,10.0,81,0.00,,,0.00,933.0,meteohub,2013-06-04 19:12:00,
2013-06-04 15:17:00,85.1,77.5,29.94,SW,229,0.0,10.0,78,0.00,,,0.00,951.0,meteohub,2013-06-04 19:17:00,
2013-06-04 15:22:00,86.2,78.4,29.93,South,178,5.0,10.0,78,0.00,,,0.00,939.0,meteohub,2013-06-04 19:22:00,
2013-06-04 15:27:00,85.5,77.0,29.93,SE,132,0.0,10.0,76,0.00,,,0.00,134.0,meteohub,2013-06-04 19:27:00,
2013-06-04 15:32:00,84.4,76.5,29.93,ESE,121,2.0,10.0,77,0.00,,,0.00,250.0,meteohub,2013-06-04 19:32:00,
2013-06-04 15:37:00,84.6,77.7,29.93,SSW,194,1.0,10.0,80,0.00,,,0.00,870.0,meteohub,2013-06-04 19:37:00,
2013-06-04 15:42:00,86.7,78.6,29.93,SE,134,0.0,7.0,77,0.00,,,0.00,969.0,meteohub,2013-06-04 19:42:00,
2013-06-04 15:47:00,88.0,77.4,29.92,SW,236,2.0,7.0,71,0.00,,,0.00,916.0,meteohub,2013-06-04 19:47:00,
2013-06-04 15:53:00,86.7,77.9,29.92,South,170,2.0,6.0,75,0.00,,,0.00,844.0,meteohub,2013-06-04 19:53:00,
2013-06-04 15:59:00,87.3,77.9,29.92,South,176,2.0,6.0,74,0.00,,,0.00,773.0,meteohub,2013-06-04 19:59:00,
2013-06-04 16:05:00,87.1,78.3,29.92,SSW,209,0.0,6.0,75,0.00,,,0.00,851.0,meteohub,2013-06-04 20:05:00,
2013-06-04 16:11:00,88.0,78.3,29.92,SSW,207,0.0,6.0,73,0.00,,,0.00,821.0,meteohub,2013-06-04 20:11:00,
2013-06-04 16:17:00,87.4,77.4,29.92,SSW,212,1.0,9.0,72,0.00,,,0.00,812.0,meteohub,2013-06-04 20:17:00,
2013-06-04 16:22:00,87.4,77.4,29.91,ESE,121,0.0,9.0,72,0.00,,,0.00,668.0,meteohub,2013-06-04 20:22:00,
2013-06-04 16:27:00,87.4,77.4,29.91,SSW,192,0.0,9.0,72,0.00,,,0.00,526.0,meteohub,2013-06-04 20:27:00,
2013-06-04 16:32:00,87.4,77.4,29.91,SSW,197,0.0,6.0,72,0.00,,,0.00,733.0,meteohub,2013-06-04 20:32:00,
2013-06-04 16:37:00,88.3,77.4,29.91,South,190,2.0,6.0,70,0.00,,,0.00,745.0,meteohub,2013-06-04 20:37:00,
2013-06-04 16:42:00,88.5,78.3,29.91,South,190,1.0,7.0,72,0.00,,,0.00,687.0,meteohub,2013-06-04 20:42:00,
2013-06-04 16:47:00,88.3,77.4,29.91,WNW,293,4.0,7.0,70,0.00,,,0.00,171.0,meteohub,2013-06-04 20:47:00,
2013-06-04 16:52:00,87.3,76.6,29.91,SSE,162,0.0,7.0,71,0.00,,,0.00,200.0,meteohub,2013-06-04 20:52:00,
2013-06-04 16:57:00,87.3,77.2,29.90,South,184,5.0,7.0,72,0.00,,,0.00,729.0,meteohub,2013-06-04 20:57:00,
2013-06-04 17:02:00,87.6,77.0,29.90,SSE,156,1.0,7.0,71,0.00,,,0.00,663.0,meteohub,2013-06-04 21:02:00,
2013-06-04 17:07:00,86.7,76.6,29.90,South,190,1.0,7.0,72,0.00,,,0.00,214.0,meteohub,2013-06-04 21:07:00,
2013-06-04 17:13:00,85.8,76.6,29.90,SSE,158,0.0,7.0,74,0.00,,,0.00,206.0,meteohub,2013-06-04 21:13:00,
2013-06-04 17:19:00,85.8,77.0,29.90,South,188,0.0,7.0,75,0.00,,,0.00,229.0,meteohub,2013-06-04 21:19:00,
2013-06-04 17:25:00,85.8,77.4,29.90,WNW,294,0.0,5.0,76,0.00,,,0.00,701.0,meteohub,2013-06-04 21:25:00,
2013-06-04 17:31:00,87.3,77.5,29.91,WNW,286,1.0,5.0,73,0.00,,,0.00,571.0,meteohub,2013-06-04 21:31:00,
2013-06-04 17:37:00,87.3,76.6,29.91,South,180,0.0,5.0,71,0.00,,,0.00,155.0,meteohub,2013-06-04 21:37:00,
2013-06-04 17:42:00,86.4,76.6,29.91,South,170,0.0,4.0,73,0.00,,,0.00,144.0,meteohub,2013-06-04 21:42:00,
2013-06-04 17:47:00,85.8,76.6,29.91,WNW,288,0.0,4.0,74,0.00,,,0.00,156.0,meteohub,2013-06-04 21:47:00,
2013-06-04 17:52:00,85.3,76.8,29.91,SSW,207,2.0,5.0,76,0.00,,,0.00,186.0,meteohub,2013-06-04 21:52:00,
2013-06-04 17:57:00,85.5,77.0,29.91,WSW,240,4.0,5.0,76,0.00,,,0.00,188.0,meteohub,2013-06-04 21:57:00,
2013-06-04 18:02:00,85.1,76.6,29.91,SSW,205,3.0,5.0,76,0.00,,,0.00,244.0,meteohub,2013-06-04 22:02:00,
2013-06-04 18:08:00,85.3,76.8,29.91,South,170,2.0,6.0,76,0.00,,,0.00,102.0,meteohub,2013-06-04 22:08:00,
2013-06-04 18:15:00,85.3,76.8,29.91,ESE,116,2.0,8.0,76,0.00,,,0.00,67.0,meteohub,2013-06-04 22:15:00,
2013-06-04 18:21:00,85.1,76.6,29.91,SSE,157,0.0,8.0,76,0.00,,,0.00,70.0,meteohub,2013-06-04 22:21:00,
2013-06-04 18:27:00,84.9,76.8,29.92,SSE,167,0.0,8.0,77,0.00,,,0.00,93.0,meteohub,2013-06-04 22:27:00,
2013-06-04 18:32:00,84.7,76.6,29.92,South,182,3.0,8.0,77,0.00,,,0.00,70.0,meteohub,2013-06-04 22:32:00,
2013-06-04 18:37:00,84.7,77.2,29.93,South,176,0.0,6.0,78,0.00,,,0.00,56.0,meteohub,2013-06-04 22:37:00,
2013-06-04 18:42:00,84.6,77.0,29.94,NNE,13,1.0,6.0,78,0.00,,,0.00,23.0,meteohub,2013-06-04 22:42:00,
2013-06-04 18:47:00,83.5,73.9,29.94,NE,44,0.0,4.0,73,0.00,,,0.00,18.0,meteohub,2013-06-04 22:47:00,
2013-06-04 18:52:00,82.6,73.8,29.94,NE,38,2.0,4.0,75,0.00,,,0.00,30.0,meteohub,2013-06-04 22:52:00,
2013-06-04 18:57:00,81.3,73.0,29.94,NE,46,1.0,5.0,76,0.00,,,0.00,40.0,meteohub,2013-06-04 22:57:00,
2013-06-04 19:02:00,80.1,72.5,29.94,NNE,19,1.0,11.0,78,0.00,,,0.00,23.0,meteohub,2013-06-04 23:02:00,
2013-06-04 19:07:00,78.6,71.6,29.95,NE,44,6.0,14.0,79,0.00,,,0.00,12.0,meteohub,2013-06-04 23:07:00,
2013-06-04 19:12:00,77.2,70.5,29.94,NNE,18,0.0,14.0,80,0.00,,,0.00,5.0,meteohub,2013-06-04 23:12:00,
2013-06-04 19:19:00,75.9,70.3,29.95,NE,34,7.0,14.0,83,0.00,,,0.00,18.0,meteohub,2013-06-04 23:19:00,
2013-06-04 19:25:00,75.0,70.5,29.95,ENE,65,1.0,19.0,86,0.00,,,0.00,19.0,meteohub,2013-06-04 23:25:00,
2013-06-04 19:32:00,74.7,70.5,29.95,East,80,0.0,19.0,87,0.00,,,0.00,5.0,meteohub,2013-06-04 23:32:00,
2013-06-04 19:37:00,74.5,70.7,29.94,SSE,167,0.0,13.0,88,0.00,,,0.00,0.0,meteohub,2013-06-04 23:37:00,
2013-06-04 19:42:00,74.1,70.3,29.94,NE,44,5.0,11.0,88,0.00,,,0.00,0.0,meteohub,2013-06-04 23:42:00,
2013-06-04 19:47:00,73.8,69.6,29.93,NNE,18,5.0,7.0,87,0.00,,,0.00,0.0,meteohub,2013-06-04 23:47:00,
2013-06-04 19:52:00,73.6,69.4,29.94,NNE,24,0.0,10.0,87,0.00,,,0.00,0.0,meteohub,2013-06-04 23:52:00,
2013-06-04 19:57:00,73.8,70.3,29.96,NNE,24,0.0,10.0,89,0.04,,,0.04,0.0,meteohub,2013-06-04 23:57:00,
2013-06-04 20:02:00,73.8,70.7,29.95,NNE,25,0.0,6.0,90,0.15,,,0.15,0.0,meteohub,2013-06-05 00:02:00,
2013-06-04 20:08:00,73.6,70.7,29.96,NE,43,0.0,3.0,91,0.17,,,0.00,0.0,meteohub,2013-06-05 00:08:00,
2013-06-04 20:14:00,73.6,71.1,29.96,NNE,32,0.0,3.0,92,0.17,,,0.01,0.0,meteohub,2013-06-05 00:14:00,
2013-06-04 20:21:00,73.6,71.4,29.98,ESE,112,0.0,4.0,93,0.18,,,0.02,0.0,meteohub,2013-06-05 00:21:00,
2013-06-04 20:27:00,73.4,70.9,29.98,WNW,288,0.0,4.0,92,0.19,,,0.03,0.0,meteohub,2013-06-05 00:27:00,
2013-06-04 20:32:00,73.2,71.1,29.98,SW,223,0.0,4.0,93,0.20,,,0.04,0.0,meteohub,2013-06-05 00:32:00,
2013-06-04 20:37:00,73.0,70.9,29.97,SW,223,0.0,4.0,93,0.21,,,0.05,0.0,meteohub,2013-06-05 00:37:00,
2013-06-04 20:42:00,73.0,70.9,29.97,SW,223,0.0,2.0,93,0.23,,,0.07,0.0,meteohub,2013-06-05 00:42:00,
2013-06-04 20:47:00,73.0,70.9,29.97,SW,223,0.0,2.0,93,0.25,,,0.09,0.0,meteohub,2013-06-05 00:47:00,
2013-06-04 20:52:00,72.9,70.7,29.97,SW,223,0.0,1.0,93,0.28,,,0.12,0.0,meteohub,2013-06-05 00:52:00,
2013-06-04 20:58:00,72.9,71.1,29.96,SW,223,0.0,1.0,94,0.22,,,0.15,0.0,meteohub,2013-06-05 00:58:00,
2013-06-04 21:04:00,72.9,70.7,29.97,SW,223,0.0,1.0,93,0.16,,,0.16,0.0,meteohub,2013-06-05 01:04:00,
2013-06-04 21:10:00,72.9,71.1,29.99,SW,223,0.0,1.0,94,0.16,,,0.17,0.0,meteohub,2013-06-05 01:10:00,
2013-06-04 21:16:00,72.9,71.1,29.99,SW,223,0.0,1.0,94,0.15,,,0.17,0.0,meteohub,2013-06-05 01:16:00,
2013-06-04 21:22:00,73.0,71.2,29.98,ENE,67,0.0,1.0,94,0.15,,,0.17,0.0,meteohub,2013-06-05 01:22:00,
2013-06-04 21:27:00,72.9,71.1,29.98,ENE,62,0.0,4.0,94,0.14,,,0.17,0.0,meteohub,2013-06-05 01:27:00,
2013-06-04 21:32:00,72.9,71.4,29.99,ENE,62,0.0,4.0,95,0.13,,,0.17,0.0,meteohub,2013-06-05 01:32:00,
2013-06-04 21:37:00,72.9,71.1,29.99,ENE,62,0.0,2.0,94,0.11,,,0.17,0.0,meteohub,2013-06-05 01:37:00,
2013-06-04 21:42:00,72.9,71.4,29.99,ENE,62,0.0,1.0,95,0.09,,,0.17,0.0,meteohub,2013-06-05 01:42:00,
2013-06-04 21:47:00,72.7,71.2,29.98,NNE,18,1.0,3.0,95,0.08,,,0.18,0.0,meteohub,2013-06-05 01:47:00,
2013-06-04 21:52:00,72.9,71.4,29.98,NNE,18,0.0,3.0,95,0.05,,,0.18,0.0,meteohub,2013-06-05 01:52:00,
2013-06-04 21:57:00,72.7,71.2,29.99,NNE,18,0.0,3.0,95,0.03,,,0.18,0.0,meteohub,2013-06-05 01:57:00,
2013-06-04 22:02:00,72.7,71.2,29.99,NNE,18,0.0,2.0,95,0.03,,,0.19,0.0,meteohub,2013-06-05 02:02:00,
2013-06-04 22:08:00,72.7,71.2,29.98,NNE,18,0.0,1.0,95,0.02,,,0.19,0.0,meteohub,2013-06-05 02:08:00,
2013-06-04 22:15:00,72.9,71.4,29.98,NNE,18,0.0,1.0,95,0.02,,,0.19,0.0,meteohub,2013-06-05 02:15:00,
2013-06-04 22:21:00,72.9,71.4,29.98,North,5,0.0,1.0,95,0.03,,,0.20,0.0,meteohub,2013-06-05 02:21:00,
2013-06-04 22:27:00,73.0,71.6,29.99,North,5,0.0,1.0,95,0.04,,,0.21,0.0,meteohub,2013-06-05 02:27:00,
2013-06-04 22:32:00,73.0,71.8,29.99,NW,306,0.0,1.0,96,0.05,,,0.22,0.0,meteohub,2013-06-05 02:32:00,
2013-06-04 22:37:00,73.0,71.8,29.99,NW,306,0.0,1.0,96,0.06,,,0.23,0.0,meteohub,2013-06-05 02:37:00,
2013-06-04 22:42:00,73.2,72.0,29.99,NW,306,0.0,1.0,96,0.07,,,0.24,0.0,meteohub,2013-06-05 02:42:00,
2013-06-04 22:47:00,73.4,72.1,29.99,NW,306,0.0,0.0,96,0.06,,,0.24,0.0,meteohub,2013-06-05 02:47:00,
2013-06-04 22:52:00,73.6,72.3,29.99,WNW,296,0.0,1.0,96,0.07,,,0.25,0.0,meteohub,2013-06-05 02:52:00,
2013-06-04 22:57:00,73.4,72.0,29.99,WNW,296,0.0,3.0,95,0.07,,,0.26,0.0,meteohub,2013-06-05 02:57:00,
2013-06-04 23:02:00,73.2,71.8,29.99,WNW,296,0.0,3.0,95,0.08,,,0.27,0.0,meteohub,2013-06-05 03:02:00,
2013-06-04 23:07:00,73.0,71.6,29.98,WNW,296,0.0,1.0,95,0.09,,,0.28,0.0,meteohub,2013-06-05 03:07:00,
2013-06-04 23:12:00,72.9,71.6,29.97,WNW,296,0.0,1.0,96,0.10,,,0.29,0.0,meteohub,2013-06-05 03:12:00,
2013-06-04 23:17:00,72.9,71.4,29.97,WNW,296,0.0,2.0,95,0.10,,,0.30,0.0,meteohub,2013-06-05 03:17:00,
2013-06-04 23:22:00,72.7,71.2,29.97,WNW,296,0.0,2.0,95,0.10,,,0.30,0.0,meteohub,2013-06-05 03:22:00,
2013-06-04 23:28:00,72.5,71.1,29.96,WNW,294,1.0,1.0,95,0.08,,,0.30,0.0,meteohub,2013-06-05 03:28:00,
2013-06-04 23:35:00,72.1,70.7,29.96,WNW,286,2.0,3.0,95,0.08,,,0.31,0.0,meteohub,2013-06-05 03:35:00,
2013-06-04 23:41:00,72.0,70.5,29.98,WNW,286,0.0,3.0,95,0.07,,,0.31,0.0,meteohub,2013-06-05 03:41:00,
2013-06-04 23:47:00,71.8,70.5,29.98,WNW,286,0.0,3.0,96,0.06,,,0.31,0.0,meteohub,2013-06-05 03:47:00,
2013-06-04 23:52:00,71.6,70.2,29.97,WNW,286,0.0,1.0,95,0.05,,,0.31,0.0,meteohub,2013-06-05 03:52:00,
2013-06-04 23:57:00,71.4,70.0,29.97,WNW,286,0.0,2.0,95,0.04,,,0.31,0.0,meteohub,2013-06-05 03:57:00,